Location: Gudip?du
(17.0263°N, 80.8301°E)
Time: 06:16:12
(UTC+00:00)

CZ-2C R/B - Pass Details

Date: 03 August 2024
Orbit: 666 x 777 km, 98.4° (Epoch: 10 September)

Event Time Altitude Azimuth Distance (km) Brightness Sun altitude
Rises 22:55:44 0° 348° (NNW) 3,250 5.9 -19.0°
Reaches altitude 10° 22:58:38 10° 332° (NNW) 2,324 5.0 -18.3°
Enters shadow 23:02:04 19° 289° (WNW) 1,764 4.0 -17.6°
